SCP
0 0 0 0 0 0 0 0 0 0 0 0 0 0 0 0 0 0 0 0 0 0
0 0 0 0 0 0 0 0 0 0 0 0 0 0 0 0 0 0 0 0 0 0
0 0 0 0 0 0 0 0 0 0 0 0 0 0 0 0 0 0 0 0 0 0
0 0 0 0 0 0 0 0 0 0 0 0 0 0 0 0 0 0 0 0 0 0
0 0 0 0 0 0 0 0 0 0 0 0 0 0 0 0 0 0 0 0 0 0
0 0 0 0 0 0 0 0 0 0 0 0 0 0 0 0 0 0 0 0 0 0
0 0 0 0 0 0 0 0 0 0 -0 0 0 0 0 0 0 0 -0 -0 0 0
0 0 0 0 0 0 0 0 0 -0 0 0 0 0 0 -0 0 -0 -0 0 0 0
0 0 0 0 0 0 0 -0 -0 0 0 0 -0 -0 -0 0 0 0 0 0 0 0
0 0 0 0 0 0 0 0 -0 -0 0 0 -0 -0 -0 0 0 0 0 0 0 0
0 0 0 0 0 0 0 0 -0 0 -0 -0 -0 -0 -0 -0 -0 -0 0 0 0 0
0 0 0 0 0 0 0 0 -0 0 0 0 0 -0 -0 -0 0 -0 -0 -0 -0 0
0 0 0 0 -0 0 0 0 0 0 0 0 0 -0 -0 -0 0 0 0 -0 -0 -0
0 0 0 0 0 0 0 0 0 0 0 0 0 0 -0 -0 0 0 0 0 -0 -0
Wind_Speed_500mb
60 60 57 57 51 51 49 46 43 43 43 44 45 46 48 52 54 55 56 64 73 67
54 51 52 48 48 46 45 45 43 43 43 45 48 48 46 55 60 61 66 74 76 74
51 46 47 48 45 43 43 42 42 41 42 46 47 49 48 55 56 62 69 72 79 74
45 43 42 44 41 40 42 41 40 41 42 46 50 52 51 51 60 64 68 66 78 75
44 39 39 39 37 38 41 39 39 40 41 46 45 45 47 54 53 58 64 55 64 69
40 37 35 35 33 35 37 38 37 36 37 40 42 41 43 45 52 55 57 53 53 64
37 33 32 31 31 31 32 35 34 35 37 38 41 38 37 41 43 42 39 43 51 44
36 31 29 28 28 28 28 29 32 34 34 34 34 32 33 33 34 36 34 33 34 38
30 29 26 25 25 26 26 27 28 28 30 30 30 30 28 28 23 21 21 20 29 33
27 27 25 24 24 24 25 27 26 25 26 25 26 28 23 21 15 13 12 10 8 13
24 25 24 26 25 24 26 26 26 24 28 29 28 27 23 19 11 6 5 4 2 3
22 25 26 25 27 27 24 23 25 26 29 32 31 26 19 13 12 17 27 27 19 11
19 16 20 24 24 23 25 26 27 30 32 33 36 29 22 24 29 33 40 48 50 46
16 12 12 14 15 16 20 24 28 32 35 33 35 35 33 35 39 43 45 49 52 50
Wind_Direction_500mb
304 301 298 301 299 297 300 299 296 291 283 278 279 275 272 260 259 262 265 264 265 259
306 302 298 298 300 302 302 302 301 298 296 292 287 280 272 265 260 260 269 262 268 261
308 304 304 306 308 304 303 304 305 307 305 300 290 282 280 272 267 267 269 272 263 261
312 309 310 306 307 306 306 307 305 304 303 298 294 290 283 276 275 270 279 269 262 255
314 313 312 310 306 309 307 303 302 302 296 294 293 290 286 282 275 268 274 273 261 253
319 319 321 314 313 316 313 309 308 305 302 302 304 295 287 284 278 275 277 260 263 259
328 324 325 321 322 320 320 318 316 307 304 305 304 302 291 285 287 282 279 259 255 247
335 329 326 325 325 325 321 318 313 308 304 303 302 299 297 297 289 283 283 267 246 238
344 342 339 345 345 346 346 340 337 332 321 317 313 308 312 309 300 283 292 264 245 238
3 359 2 3 1 0 0 358 357 357 351 345 332 328 314 313 315 314 310 277 241 230
15 9 13 16 13 8 9 12 14 21 21 11 4 0 351 337 326 341 351 6 45 213
26 27 17 23 24 21 21 27 34 35 43 36 26 17 23 33 63 83 81 75 69 61
322 0 15 18 25 27 32 38 44 43 43 45 50 46 52 68 75 74 76 75 69 60
312 333 339 348 6 19 39 43 48 51 49 46 52 62 66 65 66 66 63 63 66 63
Wind_Speed_850mb
60 60 57 57 51 51 49 46 43 43 43 44 45 46 48 52 54 55 56 64 73 67
54 51 52 48 48 46 45 45 43 43 43 45 48 48 46 55 60 61 66 74 76 74
51 46 47 48 45 43 43 42 42 41 42 46 47 49 48 55 56 62 69 72 79 74
45 43 42 44 41 40 42 41 40 41 42 46 50 52 51 51 60 64 68 66 78 75
44 39 39 39 37 38 41 39 39 40 41 46 45 45 47 54 53 58 64 55 64 69
40 37 35 35 33 35 37 38 37 36 37 40 42 41 43 45 52 55 57 53 53 64
37 33 32 31 31 31 32 35 34 35 37 38 41 38 37 41 43 42 39 43 51 44
36 31 29 28 28 28 28 29 32 34 34 34 34 32 33 33 34 36 34 33 34 38
30 29 26 25 25 26 26 27 28 28 30 30 30 30 28 28 23 21 21 20 29 33
27 27 25 24 24 24 25 27 26 25 26 25 26 28 23 21 15 13 12 10 8 13
24 25 24 26 25 24 26 26 26 24 28 29 28 27 23 19 11 6 5 4 2 3
22 25 26 25 27 27 24 23 25 26 29 32 31 26 19 13 12 17 27 27 19 11
19 16 20 24 24 23 25 26 27 30 32 33 36 29 22 24 29 33 40 48 50 46
16 12 12 14 15 16 20 24 28 32 35 33 35 35 33 35 39 43 45 49 52 50
Wind_Direction_850mb
304 301 298 301 299 297 300 299 296 291 283 278 279 275 272 260 259 262 265 264 265 259
306 302 298 298 300 302 302 302 301 298 296 292 287 280 272 265 260 260 269 262 268 261
308 304 304 306 308 304 303 304 305 307 305 300 290 282 280 272 267 267 269 272 263 261
312 309 310 306 307 306 306 307 305 304 303 298 294 290 283 276 275 270 279 269 262 255
314 313 312 310 306 309 307 303 302 302 296 294 293 290 286 282 275 268 274 273 261 253
319 319 321 314 313 316 313 309 308 305 302 302 304 295 287 284 278 275 277 260 263 259
328 324 325 321 322 320 320 318 316 307 304 305 304 302 291 285 287 282 279 259 255 247
335 329 326 325 325 325 321 318 313 308 304 303 302 299 297 297 289 283 283 267 246 238
344 342 339 345 345 346 346 340 337 332 321 317 313 308 312 309 300 283 292 264 245 238
3 359 2 3 1 0 0 358 357 357 351 345 332 328 314 313 315 314 310 277 241 230
15 9 13 16 13 8 9 12 14 21 21 11 4 0 351 337 326 341 351 6 45 213
26 27 17 23 24 21 21 27 34 35 43 36 26 17 23 33 63 83 81 75 69 61
322 0 15 18 25 27 32 38 44 43 43 45 50 46 52 68 75 74 76 75 69 60
312 333 339 348 6 19 39 43 48 51 49 46 52 62 66 65 66 66 63 63 66 63